Location: Béaulencourt
(50.0796°N, 2.8795°E)
Time: 00:38:13
(UTC+00:00)

SKYMED 3 - Pass Details

Date: 20 January 2026
Orbit: 537 x 560 km, 97.8° (Epoch: 9 February)

Event Time Altitude Azimuth Distance (km) Brightness Sun altitude
Rises 06:55:30 0° 167° (SSE) 2,682 8.4 -6.8°
Reaches altitude 10° 06:57:36 10° 168° (SSE) 1,794 7.5 -6.5°
Maximum altitude 07:01:28 82° 254° (WSW) 550 4.3 -5.9°
Drops below altitude 10° 07:05:23 10° 345° (NNW) 1,810 6.6 -5.3°
Sets 07:07:31 0° 346° (NNW) 2,708 7.5 -5.0°
